[[{"header":{"parameterUnit":"m.s-1","parameterCategory":2,"la1":30.2991,"la2":30.254,"lo1":-89.0895,"lo2":-89.0444,"dy":0.0017,"dx":0.0017,"nx":28,"ny":28,"refTime":"2025-06-01T09:00:00:Z","depth":"0","parameterNumber":2,"parameterNumberName":"U-component_of_CURRENTS"},"data":[0,0,0,0,0,0,0,0,0,0,0,0,0,0,0,0,0,0,0,0,0,0,0,0,0,0,0,0,0,0,0,0,0,0,0,0,0,0,0,0,0,0,0,0,0,0,0,0,0,0,0,0,0,0,0,0,0,0,0.294,0.2941,0,0.3049,0.305,0.3051,0.3098,0.3098,0.3098,0.3097,0.3196,0.3199,0.3202,0,0,0,0,0,0,0,0,0,0,0,0,0,0.2742,0.2745,0.294,0.2941,0.2943,0.3048,0.305,0.3051,0.3098,0.3098,0.3097,0.3097,0.3195,0.3198,0.3202,0,0,0,0,0,0,0,0,0,0,0,0,0,0.2837,0.2746,0.294,0.2979,0.2983,0.3048,0.305,0.3052,0.3098,0.3098,0.3097,0.3097,0.3194,0.3198,0.3202,0.3234,0,0,0.3215,0.3217,0,0,0,0,0,0,0,0,0.2831,0.2844,0.2972,0.2976,0.2981,0.3059,0.3016,0.3112,0.3098,0.3054,0.3097,0.3097,0.315,0.3158,0.3179,0.3238,0.3242,0.3215,0.3218,0.322,0.3221,0,0,0,0,0,0,0,0.2825,0.2839,0.2983,0.2973,0.2979,0.298,0.2993,0.3034,0.3102,0.3058,0.3062,0.3074,0.3152,0.3175,0.3181,0.3244,0.3215,0.3219,0.3222,0.3223,0.3332,0.3333,0,0,0,0,0,0,0.2814,0.2834,0.298,0.2986,0.2904,0.2984,0.2999,0.3035,0.3102,0.3112,0.3074,0.3076,0.3167,0.3176,0.3185,0.3249,0.322,0.3224,0.3226,0.3332,0.3332,0.3333,0,0,0,0,0,0,0.281,0.2827,0.2975,0.291,0.2929,0.2988,0.3027,0.3037,0.3063,0.3114,0.3124,0.309,0.3168,0.3179,0.3222,0.3252,0.3226,0.3229,0.3331,0.3332,0.3333,0.3362,0,0,0,0,0,0,0.2804,0.2825,0.2848,0.2911,0.2933,0.3019,0.3028,0.3039,0.3071,0.3074,0.3131,0.314,0.3168,0.3215,0.3226,0.3257,0.3233,0.3331,0.3332,0.3332,0.336,0.3363,0.3366,0,0,0,0,0,0.2797,0.2839,0.2849,0.2867,0.2963,0.302,0.3031,0.307,0.3072,0.309,0.3121,0.3139,0.3227,0.3219,0.3231,0.3265,0.3331,0.3332,0.3332,0.3359,0.3363,0.3366,0,0,0,0,0,0,0.2763,0.285,0.2862,0.2927,0.2967,0.3028,0.3056,0.307,0.3111,0.3113,0.3149,0.3161,0.3215,0.3225,0.3216,0.3294,0.328,0.3283,0.3296,0.33,0.3302,0.3332,0.3236,0,0,0,0,0,0.2765,0.2826,0.2883,0.2934,0.2955,0.3,0.3027,0.3049,0.3092,0.311,0.3146,0.3182,0.3229,0.325,0.3292,0.3333,0.338,0.3358,0.336,0.3363,0.3393,0.346,0.3473,0.3336,0.3336,0.3336,0,0,0.2765,0.2821,0.2853,0.293,0.2967,0.3005,0.3017,0.3062,0.3094,0.3114,0.3167,0.3201,0.3243,0.3297,0.332,0.3308,0.343,0.3364,0.3366,0.3395,0.3463,0.3477,0.3489,0.3336,0.3336,0.3336,0,0,0.2798,0.2843,0.2901,0.2931,0.2987,0.3014,0.3023,0.3079,0.3106,0.3146,0.3181,0.323,0.3277,0.3333,0.336,0.34,0.3448,0.3401,0.344,0.3504,0.3517,0.3529,0.3627,0.3647,0.3395,0.3395,0.3395,0,0.2787,0.287,0.2919,0.2966,0.2989,0.3015,0.3051,0.3088,0.3146,0.3177,0.3159,0.3265,0.3301,0.3392,0.3414,0.3413,0.3465,0.3426,0.3511,0.3523,0.3535,0.3632,0.3655,0.3397,0.3397,0.3397,0.3396,0,0.2867,0.2908,0.294,0.301,0.3038,0.3074,0.3115,0.3148,0.3162,0.3197,0.3274,0.332,0.338,0.34,0.3427,0.3533,0.3551,0.3514,0.3508,0.3551,0.3651,0.3673,0.3399,0.3399,0.3398,0.3398,0,0,0.2893,0.2979,0.2985,0.3002,0.3058,0.3086,0.3139,0.3201,0.3239,0.328,0.3343,0.3428,0.3447,0.3482,0.3519,0.3588,0.3726,0.3594,0.3597,0.3704,0.3906,0.3848,0.3867,0.3701,0.3704,0.3707,0.3951,0,0.293,0.301,0.3048,0.3087,0.3118,0.3143,0.3186,0.3238,0.3278,0.3343,0.3405,0.3472,0.3476,0.3511,0.3582,0.3704,0.3783,0.3666,0.384,0.3846,0.3798,0.389,0.3668,0.386,0.3973,0.3977,0.398,0,0.2997,0.3034,0.3086,0.3118,0.3133,0.3152,0.3213,0.3256,0.3351,0.3383,0.3454,0.3506,0.3649,0.361,0.3835,0.3761,0.3846,0.3921,0.393,0.3886,0.3829,0.383,0.3896,0.3767,0.4014,0.4012,0.4009,0,0.2997,0.3055,0.3091,0.3102,0.3149,0.3167,0.319,0.3267,0.3312,0.3417,0.3469,0.3598,0.3683,0.3805,0.3953,0.3912,0.4188,0.4135,0.4166,0.4164,0.4018,0.3995,0.3987,0.4281,0.4281,0.428,0.428,0,0.3027,0.3045,0.3084,0.3093,0.3115,0.3151,0.3187,0.3234,0.3318,0.3386,0.3484,0.3571,0.3735,0.3895,0.4004,0.4172,0.4223,0.4223,0.423,0.4021,0.3997,0.3908,0.3859,0.4289,0.4287,0.4286,0.4284,0,0.3021,0.3056,0.3078,0.3109,0.3113,0.3123,0.3161,0.3196,0.3285,0.3383,0.3426,0.3604,0.3804,0.3966,0.4196,0.424,0.4274,0.4426,0.419,0.4163,0.4039,0.4,0.3955,0.3849,0.4527,0.4527,0.4527,0,0.3034,0.3047,0.3067,0.3064,0.3069,0.3083,0.3095,0.3162,0.3209,0.3398,0.3455,0.3672,0.3804,0.4123,0.423,0.4419,0.4276,0.4316,0.4183,0.4043,0.4006,0.3863,0.3766,0.4024,0.402,0.4017,0.4014,0,0.3028,0.3032,0.3045,0.3039,0.3037,0.3035,0.3063,0.3091,0.3197,0.3301,0.3452,0.3578,0.3853,0.3939,0.4161,0.4234,0.4069,0.4254,0.4155,0.367,0.3469,0.3363,0.3888,0.3985,0.3988,0.399,0.3992,0.3993,0.3013,0.3014,0.3025,0.301,0.3002,0.2979,0.2955,0.3013,0.3076,0.3196,0.3369,0.3487,0.364,0.391,0.3972,0.3881,0.3915,0.3764,0.376,0.3653,0.3431,0.3917,0.3971,0.3974,0.3976,0.3978,0.398,0,0.2998,0.3,0.2991,0.2961,0.2917,0.293,0.2928,0.2895,0.2931,0.3067,0.3185,0.3275,0.3347,0.3448,0.3479,0.34,0.3253,0.3295,0.3016,0.2972,0.3445,0.3296,0.3145,0.3145,0.3145,0.3145,0.3145,0.3145,0.2993,0.2986,0.2977,0.2887,0.285,0.276,0.2735,0.2707,0.2749,0.277,0.2798,0.29,0.3059,0.3121,0.3028,0.2964,0.2758,0.262,0.2682,0.2972,0.3012,0.3051,0.2896,0.2664,0.2664,0.2025,0.202,0.2017]},{"header":{"parameterUnit":"m.s-1","parameterCategory":2,"la1":30.2991,"la2":30.254,"lo1":-89.0895,"lo2":-89.0444,"dy":0.0017,"dx":0.0017,"nx":28,"ny":28,"refTime":"2025-06-01T09:00:00:Z","depth":"0","parameterNumber":3,"parameterNumberName":"V-component_of_CURRENTS"},"data":[0,0,0,0,0,0,0,0,0,0,0,0,0,0,0,0,0,0,0,0,0,0,0,0,0,0,0,0,0,0,0,0,0,0,0,0,0,0,0,0,0,0,0,0,0,0,0,0,0,0,0,0,0,0,0,0,0,0,0.0059,0.0058,0,-0.0037,-0.0038,-0.0039,-0.0075,-0.0075,-0.0075,-0.0075,-0.0165,-0.0168,-0.017,0,0,0,0,0,0,0,0,0,0,0,0,0,0.0174,0.0173,0.0059,0.0058,0.0056,-0.0037,-0.0038,-0.0039,-0.0075,-0.0075,-0.0075,-0.0075,-0.0164,-0.0167,-0.0171,0,0,0,0,0,0,0,0,0,0,0,0,0,0.0107,0.0172,0.0059,0.0026,0.0022,-0.0037,-0.0038,-0.004,-0.0075,-0.0075,-0.0075,-0.0075,-0.0163,-0.0167,-0.0171,-0.02,0,0,-0.0183,-0.0185,0,0,0,0,0,0,0,0,0.0111,0.0103,0.0032,0.0028,0.0024,-0.0045,-0.0031,-0.0094,-0.0075,-0.0037,-0.0075,-0.0074,-0.0126,-0.0133,-0.015,-0.0205,-0.0208,-0.0183,-0.0186,-0.0187,-0.0188,0,0,0,0,0,0,0,0.0116,0.0107,0.0022,0.0031,0.0026,0.0003,-0.0005,-0.0043,-0.008,-0.004,-0.0043,-0.0056,-0.0128,-0.0146,-0.0152,-0.021,-0.0183,-0.0187,-0.0189,-0.019,-0.022,-0.0218,0,0,0,0,0,0,0.0126,0.0111,0.0025,0.0019,0.0068,0.0001,-0.0009,-0.0022,-0.008,-0.0089,-0.0056,-0.0058,-0.0139,-0.0147,-0.0155,-0.0122,-0.0187,-0.0191,-0.0193,-0.0221,-0.0219,-0.0218,0,0,0,0,0,0,0.0129,0.012,0.0029,0.0062,0.0049,-0.0001,-0.0016,-0.0024,-0.0036,-0.0093,-0.0101,-0.0059,-0.0139,-0.015,-0.017,-0.0129,-0.0193,-0.0196,-0.0223,-0.0221,-0.0219,-0.0103,0,0,0,0,0,0,0.0133,0.0121,0.0119,0.0063,0.0047,0.0013,-0.0017,-0.0026,-0.0046,-0.0048,-0.0098,-0.0107,-0.014,-0.0164,-0.0174,-0.0135,-0.0199,-0.0225,-0.0222,-0.0219,-0.0108,-0.0097,-0.0086,0,0,0,0,0,0.0137,0.0129,0.0119,0.0109,0.0044,0.0013,0.0004,-0.003,-0.0046,-0.0041,-0.0074,-0.0105,-0.0152,-0.0167,-0.0179,-0.014,-0.0226,-0.0223,-0.022,-0.0113,-0.0099,-0.0087,0,0,0,0,0,0,0.0176,0.0123,0.0111,0.0087,0.0063,0.0007,-0.0001,-0.0024,-0.0049,-0.0053,-0.0101,-0.0111,-0.0108,-0.0145,-0.016,-0.0138,-0.0189,-0.0187,-0.0104,-0.0091,-0.008,-0.0046,-0.0202,0,0,0,0,0,0.0185,0.0166,0.0122,0.0106,0.0095,0.005,0.0033,0.0011,-0.0023,-0.0035,-0.0068,-0.0096,-0.0106,-0.0115,-0.014,-0.0141,-0.0161,-0.0119,-0.0108,-0.0098,-0.0077,-0.0071,-0.0057,-0.0206,-0.0206,-0.0206,0,0,0.0193,0.0163,0.0151,0.0113,0.0088,0.0094,0.0041,0.0019,0.0034,-0.0041,-0.0033,-0.0066,-0.0099,-0.0088,-0.0089,-0.0113,-0.0067,-0.0094,-0.0085,-0.0069,-0.0066,-0.0051,-0.0038,-0.0204,-0.0204,-0.0205,0,0,0.0211,0.0179,0.0179,0.0169,0.0138,0.0117,0.0118,0.0074,0.0067,0.0058,0.0027,0.0024,-0.0018,-0.0012,-0.0018,0.0036,-0.0011,0.0024,0.0109,0.0115,0.0128,0.0138,0.0131,0.014,0.0033,0.0033,0.0033,0,0.0229,0.0227,0.0177,0.0188,0.0194,0.0139,0.0166,0.015,0.0109,0.0123,0.0078,0.0067,0.003,0.0079,0.0099,0.0065,0.0048,0.0062,0.0131,0.0141,0.015,0.0139,0.0148,0.0039,0.0038,0.0038,0.0037,0,0.0254,0.0267,0.0268,0.0274,0.0274,0.0282,0.0263,0.0266,0.0243,0.0233,0.0256,0.0204,0.0203,0.0197,0.0159,0.0221,0.0181,0.0142,0.0101,0.0173,0.0156,0.0163,0.0048,0.0045,0.0044,0.0042,0,0,0.0264,0.0286,0.0291,0.0329,0.0326,0.0331,0.0367,0.0393,0.0431,0.0392,0.0447,0.0423,0.0387,0.0379,0.0337,0.0343,0.0383,0.0274,0.0272,0.0273,0.0387,0.0336,0.0338,0.035,0.0352,0.0354,0.0348,0,0.0311,0.037,0.0363,0.0438,0.0476,0.0464,0.051,0.0526,0.052,0.0553,0.0526,0.0545,0.0459,0.046,0.0455,0.0404,0.0407,0.0387,0.0311,0.0309,0.0262,0.0347,0.0328,0.0319,0.0355,0.0356,0.0357,0,0.0349,0.0388,0.0469,0.055,0.0564,0.0598,0.0669,0.0697,0.0731,0.0727,0.0736,0.0702,0.0719,0.0622,0.0582,0.0568,0.0491,0.0442,0.044,0.0361,0.0273,0.0253,0.033,0.0181,0.0367,0.0366,0.0365,0,0.0398,0.0471,0.0546,0.0569,0.0638,0.0679,0.0711,0.0753,0.08,0.0837,0.0879,0.0862,0.0866,0.0784,0.0662,0.0626,0.0606,0.054,0.0428,0.0422,0.0377,0.0364,0.031,0.0521,0.0521,0.0521,0.0521,0,0.0463,0.0524,0.0574,0.0617,0.0712,0.0734,0.0827,0.0854,0.0916,0.1007,0.0965,0.1029,0.0907,0.087,0.0732,0.0609,0.0655,0.0471,0.0432,0.0414,0.0406,0.0247,0.0153,0.052,0.052,0.052,0.052,0,0.0516,0.0548,0.0636,0.0714,0.0738,0.0801,0.0892,0.0966,0.101,0.1127,0.1154,0.1172,0.1125,0.0987,0.0865,0.0713,0.0502,0.0529,0.0509,0.0469,0.0208,0.0121,0.0037,-0.0022,0.0416,0.0415,0.0414,0,0.0554,0.0604,0.0693,0.0744,0.0779,0.0864,0.0936,0.0999,0.1084,0.1223,0.13,0.1305,0.1331,0.1127,0.0867,0.064,0.0484,0.0452,0.0382,0.022,0.0096,0.0044,-0.0002,0.0364,0.0363,0.0362,0.0361,0,0.0627,0.0648,0.0715,0.0811,0.0888,0.0991,0.1094,0.1181,0.1289,0.1409,0.1555,0.1597,0.1404,0.1181,0.085,0.0671,0.034,0.0422,0.0274,0.0079,0.0004,-0.008,0.0325,0.0352,0.0353,0.0354,0.0354,0.0355,0.0669,0.0721,0.0795,0.0888,0.0985,0.1119,0.122,0.1358,0.1527,0.1737,0.1742,0.1833,0.1464,0.1021,0.0754,0.0246,0.0271,0.0091,0.0009,-0.002,-0.01,0.028,0.0245,0.0245,0.0246,0.0246,0.0246,0,0.0723,0.0779,0.0871,0.0991,0.1109,0.1148,0.1335,0.1461,0.1685,0.1863,0.1995,0.1842,0.1397,0.0916,0.0232,-0.0098,-0.0204,-0.0278,-0.0352,-0.0373,-0.0016,-0.0044,-0.0165,-0.0164,-0.0164,-0.0164,-0.0164,-0.0164,0.0756,0.084,0.0885,0.1072,0.1166,0.1338,0.1454,0.1659,0.1814,0.2031,0.2077,0.2082,0.1673,0.0489,-0.0291,-0.0463,-0.0671,-0.0731,-0.0812,-0.059,-0.0562,-0.0535,-0.0581,-0.0812,-0.0813,-0.1119,-0.1123,-0.1126]}],[{"header":{"parameterUnit":"m.s-1","parameterCategory":2,"la1":30.2991,"la2":30.254,"lo1":-89.0895,"lo2":-89.0444,"dy":0.0017,"dx":0.0017,"nx":28,"ny":28,"refTime":"2025-06-01T09:00:00:Z","depth":"2","parameterNumber":2,"parameterNumberName":"U-component_of_CURRENTS"},"data":[0,0,0,0,0,0,0,0,0,0,0,0,0,0,0,0,0,0,0,0,0,0,0,0,0,0,0,0,0,0,0,0,0,0,0,0,0,0,0,0,0,0,0,0,0,0,0,0,0,0,0,0,0,0,0,0,0,0,0.2766,0.2767,0,0.274,0.2739,0.2738,0.2725,0.2726,0.2727,0.2727,0.2791,0.2792,0.2793,0,0,0,0,0,0,0,0,0,0,0,0,0,0.2481,0.2488,0.2766,0.2767,0.2768,0.2741,0.2739,0.2738,0.2725,0.2726,0.2727,0.2728,0.2791,0.2792,0.2793,0,0,0,0,0,0,0,0,0,0,0,0,0,0.2536,0.249,0.2766,0.2765,0.2766,0.2741,0.2739,0.2738,0.2724,0.2726,0.2727,0.2728,0.2791,0.2792,0.2793,0.2772,0,0,0.2797,0.2797,0,0,0,0,0,0,0,0,0.2534,0.2546,0.2765,0.2765,0.2766,0.2746,0.2662,0.2757,0.2724,0.2729,0.2728,0.2729,0.279,0.2791,0.2767,0.2775,0.2778,0.2797,0.2798,0.2798,0.2798,0,0,0,0,0,0,0,0.253,0.2545,0.2745,0.2766,0.2766,0.2656,0.2667,0.2678,0.2746,0.2729,0.273,0.2743,0.279,0.2766,0.2769,0.2779,0.2797,0.2798,0.2799,0.2799,0.2884,0.2885,0,0,0,0,0,0,0.2571,0.2544,0.2747,0.2746,0.2662,0.2662,0.2674,0.2743,0.2744,0.2747,0.2742,0.2743,0.2763,0.2768,0.2772,0.2862,0.2798,0.2799,0.28,0.2883,0.2884,0.2886,0,0,0,0,0,0,0.2566,0.2592,0.2748,0.2647,0.2661,0.267,0.2744,0.2742,0.2746,0.2755,0.2759,0.2754,0.2765,0.277,0.2825,0.2861,0.28,0.2801,0.2881,0.2883,0.2885,0.297,0,0,0,0,0,0,0.2559,0.2591,0.2633,0.2654,0.2669,0.2752,0.2744,0.2741,0.2755,0.2756,0.2766,0.2771,0.2766,0.2823,0.2826,0.2861,0.2802,0.2879,0.2882,0.2884,0.2965,0.2975,0.2983,0,0,0,0,0,0.2549,0.2606,0.2637,0.266,0.2737,0.2754,0.275,0.2748,0.2755,0.2755,0.2785,0.2772,0.2843,0.2826,0.2829,0.2865,0.2877,0.2881,0.2884,0.2961,0.2973,0.2983,0,0,0,0,0,0,0.2483,0.2612,0.2645,0.2736,0.2756,0.2756,0.2758,0.2762,0.2776,0.2793,0.2795,0.2803,0.2859,0.2851,0.2832,0.2897,0.2856,0.286,0.2913,0.2924,0.2933,0.294,0.2803,0,0,0,0,0,0.25,0.2604,0.266,0.2734,0.2749,0.2757,0.276,0.2771,0.2794,0.2799,0.2816,0.2839,0.2866,0.289,0.2902,0.2942,0.2964,0.2965,0.2974,0.2982,0.299,0.3059,0.3076,0.2897,0.2897,0.2897,0,0,0.2504,0.2582,0.2643,0.2729,0.2744,0.277,0.2761,0.2789,0.2816,0.2808,0.2855,0.2871,0.2883,0.2931,0.2954,0.2936,0.3049,0.2986,0.2993,0.2997,0.3065,0.3082,0.3098,0.29,0.2899,0.2899,0,0,0.2537,0.2625,0.2705,0.2727,0.2778,0.2787,0.2807,0.2832,0.2847,0.2892,0.2903,0.2956,0.2977,0.3008,0.3022,0.3088,0.3091,0.3083,0.3141,0.3209,0.3225,0.3239,0.3312,0.3332,0.3091,0.3092,0.3092,0,0.2521,0.2645,0.2712,0.2758,0.278,0.2806,0.2839,0.2856,0.2898,0.2925,0.2924,0.2996,0.3016,0.3088,0.3116,0.3112,0.3147,0.3102,0.3223,0.3237,0.325,0.3321,0.3342,0.3096,0.3096,0.3095,0.3095,0,0.2603,0.2678,0.2711,0.2812,0.2832,0.2866,0.2907,0.2941,0.2969,0.299,0.3066,0.3097,0.314,0.3159,0.3161,0.326,0.3256,0.3225,0.3199,0.3273,0.3344,0.3364,0.3103,0.3101,0.31,0.3098,0,0,0.2637,0.275,0.2763,0.2794,0.2863,0.2884,0.2948,0.3003,0.3047,0.3096,0.3159,0.3225,0.3241,0.326,0.3276,0.3345,0.3482,0.333,0.3332,0.3409,0.3646,0.3473,0.3478,0.3473,0.3476,0.3479,0.3667,0,0.2672,0.2758,0.2814,0.2874,0.291,0.295,0.2998,0.3054,0.31,0.3166,0.3228,0.3287,0.3278,0.3314,0.3384,0.3458,0.3534,0.3434,0.3556,0.356,0.3402,0.3495,0.3172,0.3296,0.3687,0.369,0.3693,0,0.2739,0.2785,0.2849,0.291,0.2928,0.2962,0.3039,0.3084,0.3182,0.322,0.3297,0.334,0.3467,0.3432,0.3612,0.3548,0.3606,0.3657,0.3664,0.3483,0.3423,0.328,0.3318,0.3726,0.3723,0.3721,0.3719,0,0.2733,0.2811,0.286,0.2881,0.2952,0.2984,0.302,0.3104,0.3149,0.3262,0.3323,0.344,0.3525,0.362,0.3726,0.3685,0.3913,0.3863,0.3766,0.3756,0.3492,0.345,0.3984,0.3984,0.3983,0.3983,0.3982,0,0.2755,0.2795,0.2857,0.2878,0.2921,0.2974,0.3029,0.3084,0.3177,0.3247,0.3346,0.3435,0.3578,0.3712,0.378,0.3841,0.396,0.3799,0.3794,0.3511,0.347,0.3834,0.3814,0.399,0.3988,0.3987,0.3986,0,0.2746,0.2797,0.2846,0.2907,0.2923,0.2951,0.3016,0.3057,0.3155,0.326,0.3309,0.348,0.3646,0.3775,0.3954,0.3898,0.3981,0.3968,0.3626,0.3573,0.3771,0.3754,0.3882,0.3877,0.3873,0.387,0.3868,0,0.2753,0.278,0.2844,0.2862,0.2886,0.2926,0.2955,0.3035,0.3086,0.3279,0.3337,0.3533,0.3624,0.3809,0.3751,0.3812,0.3968,0.3549,0.3381,0.3778,0.3763,0.3751,0.3739,0.31,0.3092,0.3085,0.3079,0,0.2738,0.2768,0.2797,0.2834,0.2863,0.2883,0.2934,0.2965,0.3082,0.317,0.3307,0.3395,0.351,0.3392,0.3431,0.342,0.3499,0.3398,0.3948,0.3138,0.3045,0.3028,0.3042,0.3015,0.3021,0.3026,0.303,0.3032,0.272,0.273,0.2769,0.2797,0.2824,0.2828,0.2812,0.2876,0.2925,0.2973,0.3122,0.3111,0.3131,0.297,0.2928,0.2878,0.3089,0.2983,0.3005,0.3034,0.2872,0.2772,0.2664,0.2668,0.2672,0.2675,0.2678,0,0.2674,0.2701,0.2724,0.2738,0.2722,0.2772,0.2787,0.2732,0.2739,0.2749,0.2762,0.2479,0.2396,0.2492,0.2258,0.2224,0.2199,0.2208,0.2168,0.2231,0.2287,0.2086,0.1672,0.1669,0.1667,0.1664,0,0,0.2655,0.2644,0.265,0.2618,0.264,0.2581,0.2566,0.249,0.2449,0.2269,0.2167,0.221,0.2344,0.1945,0.19,0.1769,0.1994,0.1702,0.2501,0.2514,0.2567,0.2715,0.2473,0,0,0,0,0]},{"header":{"parameterUnit":"m.s-1","parameterCategory":2,"la1":30.2991,"la2":30.254,"lo1":-89.0895,"lo2":-89.0444,"dy":0.0017,"dx":0.0017,"nx":28,"ny":28,"refTime":"2025-06-01T09:00:00:Z","depth":"2","parameterNumber":3,"parameterNumberName":"V-component_of_CURRENTS"},"data":[0,0,0,0,0,0,0,0,0,0,0,0,0,0,0,0,0,0,0,0,0,0,0,0,0,0,0,0,0,0,0,0,0,0,0,0,0,0,0,0,0,0,0,0,0,0,0,0,0,0,0,0,0,0,0,0,0,0,-0.0133,-0.0134,0,-0.0297,-0.0299,-0.0302,-0.0377,-0.0376,-0.0376,-0.0375,-0.0486,-0.0489,-0.0492,0,0,0,0,0,0,0,0,0,0,0,0,0,0.0006,0.0004,-0.0133,-0.0135,-0.0136,-0.0297,-0.0299,-0.0302,-0.0377,-0.0376,-0.0376,-0.0375,-0.0485,-0.0489,-0.0493,0,0,0,0,0,0,0,0,0,0,0,0,0,-0.0099,0.0003,-0.0133,-0.0191,-0.0197,-0.0296,-0.03,-0.0303,-0.0377,-0.0376,-0.0376,-0.0375,-0.0483,-0.0488,-0.0493,-0.0538,0,0,-0.0509,-0.0511,0,0,0,0,0,0,0,0,-0.0093,-0.0104,-0.018,-0.0187,-0.0194,-0.0313,-0.0291,-0.0378,-0.0377,-0.0312,-0.0375,-0.0375,-0.0421,-0.0432,-0.0469,-0.0543,-0.0548,-0.0509,-0.0512,-0.0514,-0.0516,0,0,0,0,0,0,0,-0.0085,-0.0098,-0.0201,-0.0182,-0.0191,-0.0246,-0.026,-0.0309,-0.037,-0.0318,-0.0323,-0.0336,-0.0425,-0.0464,-0.0472,-0.0549,-0.0509,-0.0513,-0.0517,-0.0518,-0.0597,-0.0596,0,0,0,0,0,0,-0.0054,-0.0091,-0.0196,-0.0206,-0.0137,-0.0249,-0.0264,-0.0278,-0.0371,-0.0384,-0.0337,-0.0339,-0.0456,-0.0466,-0.0476,-0.0443,-0.0514,-0.0519,-0.0522,-0.0598,-0.0597,-0.0596,0,0,0,0,0,0,-0.005,-0.0062,-0.0189,-0.015,-0.0169,-0.025,-0.0267,-0.0282,-0.0311,-0.0385,-0.0398,-0.0348,-0.0456,-0.0469,-0.0492,-0.0451,-0.0521,-0.0526,-0.0599,-0.0598,-0.0596,-0.0434,0,0,0,0,0,0,-0.0046,-0.006,-0.0063,-0.0147,-0.017,-0.024,-0.0268,-0.0285,-0.0319,-0.0324,-0.04,-0.041,-0.0456,-0.0484,-0.0497,-0.0459,-0.053,-0.06,-0.0598,-0.0597,-0.0441,-0.0427,-0.0416,0,0,0,0,0,-0.004,-0.0068,-0.0062,-0.0075,-0.0171,-0.024,-0.0258,-0.0316,-0.032,-0.0338,-0.0366,-0.0407,-0.0482,-0.0487,-0.0502,-0.0465,-0.0601,-0.0599,-0.0597,-0.0446,-0.043,-0.0416,0,0,0,0,0,0,-0.0022,-0.008,-0.0076,-0.012,-0.016,-0.0251,-0.0279,-0.0306,-0.0349,-0.0339,-0.0401,-0.0414,-0.0419,-0.0472,-0.0476,-0.0485,-0.0547,-0.0547,-0.0427,-0.0412,-0.04,-0.0367,-0.0534,0,0,0,0,0,-0.001,-0.0034,-0.009,-0.0117,-0.0134,-0.0194,-0.0228,-0.0257,-0.0305,-0.0325,-0.0363,-0.0401,-0.0428,-0.0441,-0.0485,-0.0493,-0.0527,-0.048,-0.0467,-0.0456,-0.0441,-0.0448,-0.0434,-0.0589,-0.0589,-0.0589,0,0,-0.0005,-0.0041,-0.0053,-0.0112,-0.0147,-0.0154,-0.0215,-0.0255,-0.0242,-0.0328,-0.0319,-0.0364,-0.0423,-0.0424,-0.0431,-0.0457,-0.043,-0.0453,-0.0443,-0.0434,-0.0444,-0.0429,-0.0415,-0.0587,-0.0588,-0.0588,0,0,-0.0007,-0.0036,-0.0047,-0.0065,-0.0104,-0.0135,-0.0134,-0.0195,-0.0206,-0.0212,-0.0253,-0.026,-0.0323,-0.0336,-0.0355,-0.0305,-0.0368,-0.0329,-0.0231,-0.0237,-0.0224,-0.0212,-0.0229,-0.022,-0.0316,-0.0316,-0.0316,0,0.001,-0.0004,-0.0061,-0.006,-0.0055,-0.0109,-0.009,-0.0116,-0.0166,-0.0153,-0.0185,-0.0226,-0.0272,-0.0249,-0.0228,-0.0271,-0.0298,-0.0276,-0.0217,-0.0207,-0.0198,-0.0218,-0.021,-0.0308,-0.0309,-0.031,-0.0311,0,0.0004,0.0021,0.0012,0.002,0.0011,0.0009,-0.0007,-0.0006,-0.0014,-0.0027,-0.0014,-0.0074,-0.0095,-0.0107,-0.0152,-0.0106,-0.0154,-0.02,-0.0244,-0.0171,-0.0198,-0.0193,-0.0296,-0.0299,-0.0302,-0.0304,0,0,-0.0012,0.0011,0.0015,0.0067,0.0065,0.0059,0.0098,0.0114,0.0154,0.0121,0.0173,0.0133,0.01,0.0076,0.0022,0.0023,0.0067,-0.0051,-0.0056,-0.0048,0.0047,-0.0047,-0.0051,0.003,0.0031,0.0033,0.0006,0,0.002,0.0066,0.006,0.0143,0.0183,0.0181,0.023,0.0247,0.0243,0.0275,0.0243,0.0257,0.0169,0.0172,0.0159,0.009,0.0086,0.0078,-0.0043,-0.0046,-0.0121,-0.0046,-0.0022,-0.0049,0.001,0.0011,0.0011,0,0.0028,0.0068,0.015,0.0256,0.0271,0.0311,0.0388,0.0418,0.0449,0.0451,0.0453,0.0414,0.0422,0.0331,0.0262,0.0257,0.0169,0.0108,0.0104,-0.0035,-0.013,-0.0117,-0.0044,0.0019,0.0018,0.0018,0.0017,0,0.0065,0.0141,0.0222,0.0252,0.0342,0.0391,0.0432,0.0477,0.0528,0.0563,0.061,0.0575,0.0585,0.0478,0.0339,0.0307,0.0252,0.0187,0.002,0.0011,-0.0018,-0.0033,0.0143,0.0143,0.0143,0.0143,0.0144,0,0.0106,0.0182,0.025,0.0303,0.0415,0.0452,0.0558,0.0589,0.0657,0.075,0.0702,0.0762,0.0625,0.0567,0.0406,0.0233,0.0298,0.0057,0.0009,0.0035,0.0026,0.0035,0.0023,0.0142,0.0143,0.0143,0.0143,0,0.0148,0.0192,0.0304,0.0406,0.0443,0.0521,0.064,0.0716,0.0769,0.0887,0.0918,0.0925,0.0849,0.0679,0.0522,0.0334,0.0169,0.0084,0.0116,0.007,-0.0087,-0.009,-0.0093,-0.0097,-0.01,-0.0102,-0.0104,0,0.018,0.0237,0.0366,0.0435,0.0487,0.0596,0.0685,0.0764,0.0849,0.0989,0.1065,0.1048,0.1033,0.0754,0.0448,0.0157,0.0139,-0.0029,-0.0095,-0.0059,-0.0105,-0.0105,-0.0105,-0.0062,-0.0063,-0.0065,-0.0066,0,0.024,0.0281,0.0358,0.0495,0.06,0.0726,0.0853,0.0943,0.1061,0.1171,0.13,0.1305,0.105,0.0768,0.0356,0.0157,0.0013,-0.0069,0.0005,-0.0028,-0.0038,-0.0082,-0.008,-0.0076,-0.0075,-0.0074,-0.0074,-0.0073,0.0273,0.0327,0.0419,0.0553,0.0688,0.0851,0.0966,0.1112,0.1275,0.1441,0.1421,0.1412,0.1103,0.0554,0.0245,-0.0084,-0.0094,-0.0218,-0.0209,-0.0201,-0.0214,-0.0231,-0.0308,-0.0308,-0.0308,-0.0308,-0.0308,0,0.0285,0.0353,0.0472,0.0635,0.0792,0.0873,0.1081,0.1207,0.1418,0.1502,0.1568,0.1251,0.0926,0.0594,0.008,-0.0245,-0.0226,-0.0317,-0.0216,-0.0206,-0.0196,-0.0205,-0.0298,-0.0299,-0.0299,-0.03,0,0,0.0295,0.0368,0.0428,0.0672,0.0829,0.1054,0.1189,0.1395,0.1495,0.1573,0.1534,0.1404,0.0992,0.0623,0.0228,-0.0028,-0.0041,-0.0076,-0.006,0.0114,0.0128,-0.0126,-0.0129,0,0,0,0,0]}],[{"header":{"parameterUnit":"m.s-1","parameterCategory":2,"la1":30.2991,"la2":30.254,"lo1":-89.0895,"lo2":-89.0444,"dy":0.0017,"dx":0.0017,"nx":28,"ny":28,"refTime":"2025-06-01T09:00:00:Z","depth":"4","parameterNumber":2,"parameterNumberName":"U-component_of_CURRENTS"},"data":[0,0,0,0,0,0,0,0,0,0,0,0,0,0,0,0,0,0,0,0,0,0,0,0,0,0,0,0,0,0,0,0,0,0,0,0,0,0,0,0,0,0,0,0,0,0,0,0,0,0,0,0,0,0,0,0,0,0,0.0195,0.0195,0,0.0229,0.023,0.023,0.0299,0.03,0.0301,0.0302,0.0489,0.0493,0.0497,0,0,0,0,0,0,0,0,0,0,0,0,0,0.057,0.056,0.0195,0.0195,0.0195,0.0229,0.023,0.0231,0.0299,0.03,0.0301,0.0303,0.0487,0.0492,0.0497,0,0,0,0,0,0,0,0,0,0,0,0,0,0.0489,0.0557,0.0195,0.023,0.0233,0.0228,0.023,0.0231,0.0299,0.03,0.0302,0.0303,0.0486,0.0492,0.0498,0.0509,0,0,0.0517,0.0519,0,0,0,0,0,0,0,0,0.0493,0.0476,0.0225,0.0227,0.0231,0.0257,0.043,0.033,0.0299,0.0279,0.0302,0.0304,0.0421,0.0432,0.0441,0.0517,0.0525,0.0517,0.0521,0.0524,0.0525,0,0,0,0,0,0,0,0.0498,0.0477,0.0214,0.0224,0.0228,0.0373,0.036,0.0413,0.0349,0.0281,0.0285,0.028,0.0425,0.0435,0.0446,0.0528,0.0517,0.0523,0.0526,0.0529,0.0763,0.0765,0,0,0,0,0,0,0.046,0.0479,0.0213,0.0214,0.0362,0.0363,0.035,0.0251,0.0345,0.0358,0.0279,0.0283,0.0423,0.0439,0.0453,0.0621,0.0524,0.0529,0.0533,0.076,0.0763,0.0766,0,0,0,0,0,0,0.0466,0.0432,0.0211,0.0352,0.0332,0.0352,0.0244,0.0251,0.0302,0.0341,0.0358,0.0326,0.0425,0.0445,0.0547,0.0623,0.0532,0.0538,0.0757,0.0761,0.0765,0.0861,0,0,0,0,0,0,0.0475,0.0432,0.0379,0.0344,0.0322,0.0235,0.0242,0.0251,0.0291,0.0299,0.0386,0.0402,0.0428,0.0538,0.0553,0.063,0.0543,0.0754,0.0759,0.0763,0.0854,0.0867,0.0878,0,0,0,0,0,0.0487,0.0392,0.0373,0.0344,0.0233,0.0236,0.0241,0.0269,0.0293,0.032,0.0389,0.0402,0.0578,0.0545,0.0562,0.0643,0.0752,0.0758,0.0763,0.0849,0.0865,0.0878,0,0,0,0,0,0,0.0539,0.0388,0.0368,0.0233,0.0251,0.0246,0.0263,0.029,0.0362,0.0385,0.0434,0.0455,0.0573,0.0588,0.0549,0.0721,0.0667,0.0677,0.0727,0.0742,0.0754,0.0751,0.0548,0,0,0,0,0,0.0515,0.0391,0.0339,0.0246,0.0249,0.027,0.0284,0.0308,0.0349,0.0383,0.046,0.0533,0.06,0.0656,0.0713,0.0809,0.0797,0.087,0.0882,0.0892,0.0902,0.0913,0.0927,0.0784,0.0784,0.0784,0,0,0.0512,0.0414,0.0349,0.0252,0.0263,0.0304,0.0284,0.031,0.0397,0.0394,0.0555,0.0582,0.0632,0.0742,0.0797,0.0774,0.0934,0.09,0.0908,0.0912,0.0921,0.0934,0.0946,0.0788,0.0788,0.0787,0,0,0.0481,0.0363,0.0288,0.0306,0.0307,0.0337,0.0356,0.0397,0.047,0.0602,0.0615,0.0677,0.0826,0.085,0.0884,0.0993,0.099,0.1031,0.1105,0.1118,0.1129,0.1138,0.1167,0.1178,0.1044,0.1045,0.1045,0,0.0519,0.0383,0.0297,0.0291,0.0338,0.0364,0.0419,0.049,0.0586,0.0659,0.0682,0.0845,0.0877,0.097,0.101,0.1022,0.1034,0.1047,0.1132,0.1141,0.1149,0.1175,0.1186,0.105,0.1049,0.1049,0.1048,0,0.0441,0.041,0.0394,0.0378,0.0428,0.0473,0.0559,0.0662,0.0767,0.0836,0.0979,0.1004,0.1088,0.1113,0.111,0.1186,0.1179,0.1136,0.109,0.1169,0.1192,0.1202,0.1058,0.1056,0.1054,0.1053,0,0,0.0354,0.0345,0.0352,0.0411,0.049,0.0527,0.0694,0.0832,0.0939,0.1059,0.1193,0.1276,0.1259,0.129,0.1268,0.1282,0.1348,0.125,0.1249,0.1271,0.1404,0.1289,0.1288,0.1326,0.1328,0.1329,0.1405,0,0.0366,0.0375,0.0384,0.0518,0.0564,0.0685,0.0816,0.0953,0.1101,0.1241,0.1283,0.1382,0.1338,0.1362,0.1374,0.1356,0.1377,0.1333,0.1331,0.1331,0.1212,0.1296,0.1335,0.1412,0.1415,0.1416,0.1417,0,0.0301,0.0321,0.0424,0.0584,0.0617,0.0735,0.0962,0.1094,0.1279,0.1374,0.1475,0.1502,0.1557,0.1489,0.1516,0.1499,0.1466,0.1441,0.1442,0.1304,0.1233,0.1312,0.1434,0.1433,0.1432,0.1431,0.143,0,0.0258,0.0374,0.0468,0.0522,0.0686,0.0817,0.095,0.1146,0.127,0.1466,0.1548,0.1614,0.166,0.1639,0.1588,0.1575,0.1596,0.1563,0.1431,0.1424,0.1459,0.1447,0.1569,0.1568,0.1568,0.1568,0.1568,0,0.0252,0.033,0.047,0.0522,0.0667,0.0812,0.101,0.1148,0.1343,0.1443,0.1594,0.1621,0.17,0.1713,0.1647,0.1571,0.1642,0.1464,0.1436,0.1502,0.1495,0.1467,0.1454,0.1571,0.157,0.157,0.1569,0,0.02,0.0278,0.0383,0.0571,0.0649,0.0764,0.1032,0.1135,0.1346,0.1491,0.1546,0.1685,0.1702,0.1742,0.1717,0.1642,0.1568,0.1506,0.1603,0.1576,0.139,0.1382,0.1426,0.1422,0.1419,0.1417,0.1415,0,0.0173,0.0215,0.0387,0.0449,0.0563,0.0759,0.0853,0.1101,0.1202,0.1449,0.1459,0.1599,0.1648,0.158,0.1586,0.1545,0.1483,0.1483,0.1424,0.1408,0.1377,0.1373,0.1369,0.141,0.141,0.1409,0.1408,0,0.0132,0.0188,0.0268,0.0368,0.0495,0.0619,0.0802,0.0868,0.1109,0.13,0.1375,0.1435,0.1475,0.1478,0.1492,0.1408,0.1516,0.1452,0.1458,0.1403,0.1389,0.1361,0.136,0.1398,0.1399,0.14,0.1401,0,0.0102,0.0126,0.0205,0.031,0.0408,0.0466,0.0588,0.0722,0.0864,0.1163,0.1129,0.1276,0.1414,0.1397,0.1337,0.1344,0.132,0.1275,0.1289,0.1301,0.1218,0.118,0.1118,0,0,0,0,0,0.0085,0.0099,0.0148,0.0244,0.0311,0.0377,0.0524,0.0638,0.0859,0.0882,0.1051,0.107,0.1136,0.1164,0.1144,0.1224,0.128,0.119,0.1223,0.1342,0.1354,0.1264,0,0,0,0,0,0,0.007,0.0105,0.0114,0.0148,0.0196,0.0269,0.0346,0.0484,0.0533,0.0764,0.079,0.0993,0.1037,0.1146,0.1121,0.1137,0.1131,0.1289,0.1286,0.1336,0.1346,0.1356,0.1268,0,0,0,0,0]},{"header":{"parameterUnit":"m.s-1","parameterCategory":2,"la1":30.2991,"la2":30.254,"lo1":-89.0895,"lo2":-89.0444,"dy":0.0017,"dx":0.0017,"nx":28,"ny":28,"refTime":"2025-06-01T09:00:00:Z","depth":"4","parameterNumber":3,"parameterNumberName":"V-component_of_CURRENTS"},"data":[0,0,0,0,0,0,0,0,0,0,0,0,0,0,0,0,0,0,0,0,0,0,0,0,0,0,0,0,0,0,0,0,0,0,0,0,0,0,0,0,0,0,0,0,0,0,0,0,0,0,0,0,0,0,0,0,0,0,0.0435,0.0435,0,0.0456,0.0456,0.0457,0.0493,0.0494,0.0495,0.0495,0.0469,0.0468,0.0466,0,0,0,0,0,0,0,0,0,0,0,0,0,0.0261,0.0265,0.0435,0.0435,0.0436,0.0456,0.0456,0.0457,0.0493,0.0494,0.0495,0.0496,0.0469,0.0468,0.0466,0,0,0,0,0,0,0,0,0,0,0,0,0,0.0315,0.0266,0.0435,0.0456,0.0458,0.0456,0.0457,0.0457,0.0493,0.0494,0.0495,0.0496,0.047,0.0468,0.0466,0.0434,0,0,0.046,0.0459,0,0,0,0,0,0,0,0,0.0313,0.0322,0.0453,0.0455,0.0457,0.0473,0.0385,0.0447,0.0493,0.048,0.0495,0.0497,0.0465,0.0463,0.0466,0.0433,0.0432,0.046,0.0459,0.0458,0.0457,0,0,0,0,0,0,0,0.0309,0.032,0.0444,0.0453,0.0455,0.0407,0.0418,0.0397,0.0466,0.0481,0.0484,0.0486,0.0466,0.0468,0.0466,0.0431,0.046,0.0458,0.0457,0.0456,0.0314,0.0311,0,0,0,0,0,0,0.0314,0.0318,0.0443,0.0444,0.0385,0.0411,0.0422,0.0467,0.0468,0.0469,0.0485,0.0487,0.0471,0.0468,0.0465,0.0413,0.0458,0.0456,0.0455,0.0316,0.0313,0.0311,0,0,0,0,0,0,0.0311,0.0327,0.0442,0.0378,0.0389,0.0414,0.0463,0.0467,0.0491,0.047,0.0471,0.0507,0.0472,0.0468,0.0464,0.0412,0.0455,0.0453,0.032,0.0316,0.0312,0.0317,0,0,0,0,0,0,0.0307,0.0327,0.0373,0.038,0.0394,0.0457,0.0462,0.0467,0.0489,0.0493,0.0489,0.0487,0.0472,0.0467,0.0462,0.0411,0.0452,0.0323,0.0318,0.0313,0.032,0.0313,0.0308,0,0,0,0,0,0.0301,0.0355,0.0376,0.0391,0.0455,0.0458,0.046,0.0478,0.0489,0.0503,0.0499,0.0488,0.043,0.0465,0.0459,0.0406,0.0325,0.0319,0.0314,0.0322,0.0315,0.0308,0,0,0,0,0,0,0.0288,0.0364,0.0387,0.0461,0.0466,0.0464,0.0485,0.0488,0.0497,0.0505,0.0488,0.0485,0.045,0.0428,0.0467,0.0343,0.0361,0.0354,0.0369,0.0362,0.0356,0.0341,0.045,0,0,0,0,0,0.0311,0.0393,0.0412,0.0472,0.0479,0.0484,0.0493,0.0498,0.0498,0.0506,0.0498,0.0465,0.0414,0.0397,0.0364,0.032,0.0281,0.0266,0.026,0.0256,0.0234,0.0124,0.0107,0.0291,0.0291,0.0292,0,0,0.0312,0.0375,0.0413,0.0477,0.0488,0.05,0.0494,0.051,0.0512,0.0497,0.0508,0.0461,0.0401,0.0346,0.0323,0.0328,0.0191,0.0248,0.0245,0.0226,0.0116,0.0098,0.0082,0.0287,0.0288,0.0289,0,0,0.0346,0.0419,0.0484,0.0495,0.0526,0.0525,0.0533,0.0535,0.0534,0.0523,0.0491,0.0423,0.0383,0.031,0.0267,0.0205,0.017,0.0178,0.0132,0.0026,0.0011,-0.0004,-0.003,-0.0047,0.0167,0.0167,0.0167,0,0.0344,0.0446,0.0488,0.0531,0.0546,0.054,0.0563,0.055,0.0547,0.0522,0.0529,0.0389,0.0352,0.0231,0.0196,0.019,0.015,0.0176,0.0021,0.0005,-0.001,-0.0034,-0.0052,0.0166,0.0166,0.0166,0.0166,0,0.0413,0.048,0.0507,0.0584,0.0593,0.0613,0.0596,0.0592,0.0581,0.054,0.044,0.0363,0.0261,0.022,0.0189,0.0039,0.0056,0.0039,0.0049,-0.0028,-0.0047,-0.0067,0.0165,0.0166,0.0166,0.0166,0,0,0.0444,0.0543,0.0558,0.0592,0.0627,0.0638,0.0631,0.0604,0.0579,0.0509,0.0442,0.0297,0.0215,0.0155,0.0079,-0.0028,-0.0151,-0.0048,-0.0054,-0.0055,-0.034,-0.0242,-0.0253,-0.02,-0.0205,-0.0209,-0.0293,0,0.0486,0.0576,0.0623,0.0677,0.0698,0.0696,0.0679,0.064,0.0596,0.0527,0.0373,0.0276,0.0199,0.0127,-0.0001,-0.0111,-0.0212,-0.0124,-0.0284,-0.0288,-0.0178,-0.0278,-0.0224,-0.0307,-0.0312,-0.0315,-0.0317,0,0.0549,0.0597,0.0672,0.0711,0.0722,0.076,0.0742,0.0719,0.0599,0.0539,0.0386,0.0276,0.008,0.0039,-0.0224,-0.0165,-0.027,-0.0348,-0.0353,-0.0287,-0.023,-0.0232,-0.0353,-0.035,-0.0348,-0.0345,-0.0343,0,0.0546,0.0638,0.0712,0.073,0.0759,0.0797,0.0803,0.0726,0.0698,0.054,0.0488,0.024,0.0133,-0.0076,-0.0255,-0.0261,-0.0493,-0.0511,-0.0516,-0.0506,-0.0563,-0.0548,-0.0707,-0.0707,-0.0707,-0.0707,-0.0707,0,0.0575,0.0625,0.0735,0.0759,0.0824,0.0824,0.0856,0.0805,0.0726,0.0664,0.0485,0.0366,0.009,-0.0072,-0.0252,-0.0426,-0.0501,-0.0547,-0.055,-0.0551,-0.0534,-0.0573,-0.0557,-0.071,-0.0709,-0.0709,-0.0708,0,0.0554,0.0629,0.0701,0.0783,0.0834,0.0868,0.0939,0.0918,0.0841,0.0764,0.0704,0.0459,0.0227,0.0019,-0.0282,-0.0381,-0.0574,-0.061,-0.054,-0.0532,-0.0512,-0.0495,-0.0653,-0.0651,-0.0649,-0.0648,-0.0646,0,0.0554,0.0598,0.0736,0.0805,0.0875,0.0953,0.0988,0.0964,0.0948,0.0797,0.0744,0.0527,0.0347,0.0016,-0.0219,-0.0491,-0.0531,-0.0589,-0.0635,-0.0534,-0.0521,-0.0506,-0.0492,-0.0644,-0.0643,-0.0643,-0.0642,0,0.0519,0.0594,0.0655,0.0792,0.0899,0.0979,0.1046,0.103,0.096,0.0949,0.0737,0.0526,0.0308,0.0009,-0.0149,-0.0372,-0.0543,-0.0572,-0.0579,-0.0623,-0.0525,-0.051,-0.0498,-0.0636,-0.0637,-0.0637,-0.0638,0,0.0514,0.0551,0.0651,0.0778,0.0903,0.0949,0.0978,0.0968,0.094,0.0822,0.0748,0.048,0.0346,0.0071,-0.0119,-0.0272,-0.0342,-0.0399,-0.0416,-0.0425,-0.0331,-0.0171,-0.0203,0,0,0,0,0,0.0504,0.0544,0.0631,0.0747,0.0863,0.0938,0.0993,0.0998,0.0981,0.0852,0.0807,0.0588,0.0276,0.0104,-0.004,-0.0106,-0.0368,-0.0276,-0.0442,-0.0602,-0.0609,-0.0529,0,0,0,0,0,0,0.0501,0.0566,0.0597,0.0697,0.0791,0.0881,0.091,0.0885,0.0818,0.079,0.0611,0.0601,0.0284,0.0376,-0.0027,-0.0075,-0.0192,-0.0394,-0.0396,-0.0598,-0.0604,-0.061,-0.0531,0,0,0,0,0]}]]